Time,TemperatureF,DewpointF,PressureIn,WindDirection,WindDirectionDegrees,WindSpeedMPH,WindSpeedGustMPH,Humidity,HourlyPrecipIn,Conditions,Clouds,dailyrainin,SoftwareType,DateUTC
2013-06-23 00:01:00,69.4,67.3,28.58,SE,126,6.0,0.0,93,0.16,,,-99.99,FreeWX-Wi 1.01,2013-06-23 05:01:00,
2013-06-23 00:06:00,69.4,66.9,28.58,SE,126,6.0,0.0,92,0.16,,,-99.99,FreeWX-Wi 1.01,2013-06-23 05:06:00,
2013-06-23 00:11:00,69.6,67.1,28.58,SE,126,6.0,0.0,92,0.16,,,-99.99,FreeWX-Wi 1.01,2013-06-23 05:11:00,
2013-06-23 00:16:00,69.6,67.1,28.61,SE,126,6.0,0.0,92,0.12,,,-99.99,FreeWX-Wi 1.01,2013-06-23 05:16:00,
2013-06-23 00:21:00,69.4,66.9,28.61,SE,126,6.0,0.0,92,0.12,,,-99.99,FreeWX-Wi 1.01,2013-06-23 05:21:00,
2013-06-23 00:26:00,69.4,67.3,28.61,SE,126,6.0,0.0,93,0.08,,,-99.99,FreeWX-Wi 1.01,2013-06-23 05:26:00,
2013-06-23 00:31:00,69.6,67.5,28.61,SE,126,6.0,0.0,93,0.08,,,-99.99,FreeWX-Wi 1.01,2013-06-23 05:31:00,
2013-06-23 00:36:00,69.6,67.8,28.61,SE,126,6.0,10.1,94,0.00,,,-99.99,FreeWX-Wi 1.01,2013-06-23 05:36:00,
2013-06-23 00:41:00,69.8,67.6,28.61,SE,126,6.0,0.0,93,0.00,,,-99.99,FreeWX-Wi 1.01,2013-06-23 05:41:00,
2013-06-23 00:51:00,70.2,67.1,28.58,SE,124,6.0,8.7,90,0.00,,,-99.99,FreeWX-Wi 1.01,2013-06-23 05:51:00,
2013-06-23 00:56:00,70.0,66.9,28.58,SE,124,6.0,8.7,90,0.00,,,-99.99,FreeWX-Wi 1.01,2013-06-23 05:56:00,
2013-06-23 01:01:00,70.3,67.6,28.58,SE,125,6.0,11.9,91,0.00,,,-99.99,FreeWX-Wi 1.01,2013-06-23 06:01:00,
2013-06-23 01:06:00,71.1,68.9,28.58,SE,125,6.0,13.2,93,0.00,,,-99.99,FreeWX-Wi 1.01,2013-06-23 06:06:00,
2013-06-23 01:11:00,71.4,69.6,28.58,SE,125,6.0,8.3,94,0.00,,,-99.99,FreeWX-Wi 1.01,2013-06-23 06:11:00,
2013-06-23 01:16:00,71.4,69.6,28.58,SE,125,6.0,0.0,94,0.00,,,-99.99,FreeWX-Wi 1.01,2013-06-23 06:16:00,
2013-06-23 01:21:00,71.4,69.3,28.58,SE,125,6.0,0.0,93,0.00,,,-99.99,FreeWX-Wi 1.01,2013-06-23 06:21:00,
2013-06-23 01:26:00,71.2,68.5,28.58,SE,125,6.0,0.0,91,0.00,,,-99.99,FreeWX-Wi 1.01,2013-06-23 06:26:00,
2013-06-23 01:31:00,71.1,65.3,28.58,SE,125,6.0,0.0,82,0.00,,,-99.99,FreeWX-Wi 1.01,2013-06-23 06:31:00,
2013-06-23 01:36:00,70.7,62.1,28.58,SE,125,6.0,0.0,74,0.00,,,-99.99,FreeWX-Wi 1.01,2013-06-23 06:36:00,
2013-06-23 01:41:00,70.2,61.2,28.58,SE,125,6.0,11.0,73,0.00,,,-99.99,FreeWX-Wi 1.01,2013-06-23 06:41:00,
2013-06-23 01:46:00,69.8,61.5,28.58,SE,125,6.0,0.0,75,0.00,,,-99.99,FreeWX-Wi 1.01,2013-06-23 06:46:00,
2013-06-23 01:56:00,69.3,63.1,28.58,SE,125,6.0,0.0,81,0.00,,,-99.99,FreeWX-Wi 1.01,2013-06-23 06:56:00,
2013-06-23 02:01:00,69.1,63.7,28.58,SE,125,6.0,0.0,83,0.00,,,-99.99,FreeWX-Wi 1.01,2013-06-23 07:01:00,
2013-06-23 02:06:00,68.9,64.2,28.58,SE,125,6.0,0.0,85,0.00,,,-99.99,FreeWX-Wi 1.01,2013-06-23 07:06:00,
2013-06-23 02:11:00,68.9,65.1,28.58,SE,125,6.0,0.0,88,0.00,,,-99.99,FreeWX-Wi 1.01,2013-06-23 07:11:00,
2013-06-23 02:16:00,69.1,65.7,28.61,SE,125,6.0,0.0,89,0.00,,,-99.99,FreeWX-Wi 1.01,2013-06-23 07:16:00,
2013-06-23 02:21:00,69.1,65.3,28.61,SE,125,6.0,0.0,88,0.00,,,-99.99,FreeWX-Wi 1.01,2013-06-23 07:21:00,
2013-06-23 02:26:00,69.3,64.9,28.61,SE,125,6.0,0.0,86,0.00,,,-99.99,FreeWX-Wi 1.01,2013-06-23 07:26:00,
2013-06-23 02:31:00,69.4,64.8,28.61,SE,125,6.0,0.0,85,0.00,,,-99.99,FreeWX-Wi 1.01,2013-06-23 07:31:00,
2013-06-23 02:36:00,69.8,64.4,28.61,SE,125,6.0,11.9,83,0.00,,,-99.99,FreeWX-Wi 1.01,2013-06-23 07:36:00,
2013-06-23 02:46:00,70.2,64.0,28.61,SE,125,6.0,17.4,81,0.00,,,-99.99,FreeWX-Wi 1.01,2013-06-23 07:46:00,
2013-06-23 02:51:00,70.3,64.2,28.61,SE,125,6.0,0.0,81,0.00,,,-99.99,FreeWX-Wi 1.01,2013-06-23 07:51:00,
2013-06-23 02:56:00,70.2,64.0,28.61,SE,125,6.0,0.0,81,0.00,,,-99.99,FreeWX-Wi 1.01,2013-06-23 07:56:00,
2013-06-23 03:01:00,70.0,63.9,28.61,SE,125,6.0,0.0,81,0.00,,,-99.99,FreeWX-Wi 1.01,2013-06-23 08:01:00,
2013-06-23 03:06:00,70.0,64.2,28.61,SE,125,6.0,0.0,82,0.00,,,-99.99,FreeWX-Wi 1.01,2013-06-23 08:06:00,
2013-06-23 03:11:00,69.8,63.7,28.61,SE,125,6.0,0.0,81,0.00,,,-99.99,FreeWX-Wi 1.01,2013-06-23 08:11:00,
2013-06-23 03:16:00,69.6,63.5,28.61,SE,125,6.0,0.0,81,0.00,,,-99.99,FreeWX-Wi 1.01,2013-06-23 08:16:00,
2013-06-23 03:21:00,69.4,63.7,28.61,SE,125,6.0,18.8,82,0.00,,,-99.99,FreeWX-Wi 1.01,2013-06-23 08:21:00,
2013-06-23 03:26:00,69.3,63.9,28.61,SE,125,6.0,0.0,83,0.00,,,-99.99,FreeWX-Wi 1.01,2013-06-23 08:26:00,
2013-06-23 03:36:00,69.3,64.6,28.61,SE,125,6.0,0.0,85,0.00,,,-99.99,FreeWX-Wi 1.01,2013-06-23 08:36:00,
2013-06-23 03:41:00,69.3,64.6,28.61,SE,125,6.0,0.0,85,0.00,,,-99.99,FreeWX-Wi 1.01,2013-06-23 08:41:00,
2013-06-23 03:46:00,69.3,64.6,28.58,SE,125,6.0,0.0,85,0.00,,,-99.99,FreeWX-Wi 1.01,2013-06-23 08:46:00,
2013-06-23 03:51:00,69.1,64.4,28.58,SE,125,6.0,0.0,85,0.00,,,-99.99,FreeWX-Wi 1.01,2013-06-23 08:51:00,
2013-06-23 03:56:00,69.1,64.4,28.58,SE,125,6.0,0.0,85,0.00,,,-99.99,FreeWX-Wi 1.01,2013-06-23 08:56:00,
2013-06-23 04:01:00,68.9,64.2,28.58,SE,125,6.0,0.0,85,0.00,,,-99.99,FreeWX-Wi 1.01,2013-06-23 09:01:00,
2013-06-23 04:06:00,68.9,64.6,28.58,SE,125,6.0,0.0,86,0.00,,,-99.99,FreeWX-Wi 1.01,2013-06-23 09:06:00,
2013-06-23 04:16:00,68.7,64.8,28.55,SE,125,6.0,19.7,87,0.00,,,-99.99,FreeWX-Wi 1.01,2013-06-23 09:16:00,
2013-06-23 04:21:00,68.5,64.6,28.55,SE,125,6.0,17.4,87,0.00,,,-99.99,FreeWX-Wi 1.01,2013-06-23 09:21:00,
2013-06-23 04:31:00,68.5,63.5,28.55,SE,125,6.0,0.0,84,0.00,,,-99.99,FreeWX-Wi 1.01,2013-06-23 09:31:00,
2013-06-23 04:36:00,68.4,63.0,28.55,SE,125,6.0,0.0,83,0.00,,,-99.99,FreeWX-Wi 1.01,2013-06-23 09:36:00,
2013-06-23 04:41:00,68.4,63.3,28.55,SE,125,6.0,0.0,84,0.00,,,-99.99,FreeWX-Wi 1.01,2013-06-23 09:41:00,
2013-06-23 04:46:00,68.2,63.1,28.55,SE,125,6.0,0.0,84,0.00,,,-99.99,FreeWX-Wi 1.01,2013-06-23 09:46:00,
2013-06-23 04:51:00,68.2,63.5,28.55,SE,125,6.0,0.0,85,0.00,,,-99.99,FreeWX-Wi 1.01,2013-06-23 09:51:00,
2013-06-23 05:01:00,68.2,63.5,28.55,SE,125,6.0,21.9,85,0.00,,,-99.99,FreeWX-Wi 1.01,2013-06-23 10:01:00,
2013-06-23 05:06:00,68.2,63.1,28.55,SE,125,6.0,0.0,84,0.00,,,-99.99,FreeWX-Wi 1.01,2013-06-23 10:06:00,
2013-06-23 05:11:00,68.0,63.0,28.55,SE,125,6.0,0.0,84,0.00,,,-99.99,FreeWX-Wi 1.01,2013-06-23 10:11:00,
2013-06-23 05:16:00,68.0,63.0,28.55,SE,125,6.0,0.0,84,0.00,,,-99.99,FreeWX-Wi 1.01,2013-06-23 10:16:00,
2013-06-23 05:21:00,68.0,63.0,28.55,SE,125,6.0,0.0,84,0.00,,,-99.99,FreeWX-Wi 1.01,2013-06-23 10:21:00,
2013-06-23 05:26:00,68.2,63.1,28.55,SE,125,7.0,21.0,84,0.00,,,-99.99,FreeWX-Wi 1.01,2013-06-23 10:26:00,
2013-06-23 05:31:00,68.2,63.1,28.55,SE,125,7.0,19.2,84,0.00,,,-99.99,FreeWX-Wi 1.01,2013-06-23 10:31:00,
2013-06-23 05:36:00,68.4,63.0,28.58,SE,126,7.0,17.4,83,0.00,,,-99.99,FreeWX-Wi 1.01,2013-06-23 10:36:00,
2013-06-23 05:41:00,68.4,62.2,28.58,SE,127,8.0,19.2,81,0.00,,,-99.99,FreeWX-Wi 1.01,2013-06-23 10:41:00,
2013-06-23 05:46:00,68.5,62.4,28.58,SE,129,8.0,17.4,81,0.00,,,-99.99,FreeWX-Wi 1.01,2013-06-23 10:46:00,
2013-06-23 05:51:00,68.5,62.1,28.58,SE,131,9.0,19.2,80,0.00,,,-99.99,FreeWX-Wi 1.01,2013-06-23 10:51:00,
2013-06-23 05:56:00,68.5,62.1,28.58,SE,133,10.0,15.4,80,0.00,,,-99.99,FreeWX-Wi 1.01,2013-06-23 10:56:00,
2013-06-23 06:00:00,68.7,62.6,28.55,SE,133,10.0,16.8,81,0.00,,,-99.99,FreeWX-Wi 1.01,2013-06-23 11:00:00,
2013-06-23 06:05:00,68.9,62.8,28.55,SE,131,10.0,17.0,81,0.00,,,-99.99,FreeWX-Wi 1.01,2013-06-23 11:05:00,
2013-06-23 06:15:00,69.6,62.4,28.55,SE,139,12.0,17.9,78,0.00,,,-99.99,FreeWX-Wi 1.01,2013-06-23 11:15:00,
2013-06-23 06:20:00,70.0,62.1,28.55,SE,141,12.0,16.8,76,0.00,,,-99.99,FreeWX-Wi 1.01,2013-06-23 11:20:00,
2013-06-23 06:25:00,70.0,61.7,28.55,SE,143,13.0,16.3,75,0.00,,,-99.99,FreeWX-Wi 1.01,2013-06-23 11:25:00,
2013-06-23 06:30:00,70.0,62.1,28.58,SE,144,13.0,17.9,76,0.00,,,-99.99,FreeWX-Wi 1.01,2013-06-23 11:30:00,
2013-06-23 06:35:00,70.0,62.8,28.58,SE,143,14.0,17.0,78,0.00,,,-99.99,FreeWX-Wi 1.01,2013-06-23 11:35:00,
2013-06-23 06:40:00,70.2,63.0,28.58,SE,145,14.0,17.9,78,0.00,,,-99.99,FreeWX-Wi 1.01,2013-06-23 11:40:00,
2013-06-23 07:10:00,70.2,63.7,28.58,SSE,165,14.0,15.0,80,0.00,,,-99.99,FreeWX-Wi 1.01,2013-06-23 12:10:00,
2013-06-23 07:15:00,70.0,64.2,28.58,SSE,165,14.0,0.0,82,0.00,,,-99.99,FreeWX-Wi 1.01,2013-06-23 12:15:00,
2013-06-23 07:20:00,69.8,64.8,28.58,SSE,165,14.0,0.0,84,0.00,,,-99.99,FreeWX-Wi 1.01,2013-06-23 12:20:00,
2013-06-23 07:25:00,69.8,64.8,28.58,SSE,165,14.0,0.0,84,0.00,,,-99.99,FreeWX-Wi 1.01,2013-06-23 12:25:00,
2013-06-23 07:30:00,69.8,65.1,28.58,SSE,165,14.0,0.0,85,0.00,,,-99.99,FreeWX-Wi 1.01,2013-06-23 12:30:00,
2013-06-23 07:35:00,69.8,65.7,28.58,SSE,165,14.0,0.0,87,0.00,,,-99.99,FreeWX-Wi 1.01,2013-06-23 12:35:00,
2013-06-23 07:45:00,69.6,66.9,28.58,SSE,167,13.0,17.9,91,0.04,,,-99.99,FreeWX-Wi 1.01,2013-06-23 12:45:00,
2013-06-23 07:50:00,69.8,67.3,28.58,South,176,14.0,21.0,92,0.04,,,-99.99,FreeWX-Wi 1.01,2013-06-23 12:50:00,
2013-06-23 07:55:00,69.8,67.6,28.58,South,176,14.0,20.6,93,0.04,,,-99.99,FreeWX-Wi 1.01,2013-06-23 12:55:00,
2013-06-23 08:00:00,70.0,68.2,28.58,South,178,14.0,17.4,94,0.04,,,-99.99,FreeWX-Wi 1.01,2013-06-23 13:00:00,
2013-06-23 08:05:00,70.0,68.5,28.58,South,180,14.0,17.4,95,0.04,,,-99.99,FreeWX-Wi 1.01,2013-06-23 13:05:00,
2013-06-23 08:10:00,69.8,68.4,28.58,South,178,14.0,18.8,95,0.04,,,-99.99,FreeWX-Wi 1.01,2013-06-23 13:10:00,
2013-06-23 08:15:00,69.8,68.4,28.58,South,179,14.0,17.4,95,0.04,,,-99.99,FreeWX-Wi 1.01,2013-06-23 13:15:00,
2013-06-23 08:20:00,69.6,68.2,28.58,South,179,14.0,14.0,95,0.04,,,-99.99,FreeWX-Wi 1.01,2013-06-23 13:20:00,
2013-06-23 08:30:00,69.6,68.2,28.58,South,182,13.0,13.0,95,0.04,,,-99.99,FreeWX-Wi 1.01,2013-06-23 13:30:00,
2013-06-23 08:35:00,69.6,68.2,28.58,South,186,13.0,13.0,95,0.04,,,-99.99,FreeWX-Wi 1.01,2013-06-23 13:35:00,
2013-06-23 08:40:00,69.4,68.0,28.58,South,188,12.0,12.0,95,0.00,,,-99.99,FreeWX-Wi 1.01,2013-06-23 13:40:00,
2013-06-23 08:49:00,69.4,68.0,28.58,South,187,10.0,11.0,95,0.00,,,-99.99,FreeWX-Wi 1.01,2013-06-23 13:49:00,
2013-06-23 08:54:00,69.4,68.0,28.58,South,187,9.0,12.8,95,0.00,,,-99.99,FreeWX-Wi 1.01,2013-06-23 13:54:00,
2013-06-23 08:59:00,69.4,68.2,28.58,South,184,9.0,15.9,96,0.00,,,-99.99,FreeWX-Wi 1.01,2013-06-23 13:59:00,
2013-06-23 09:09:00,69.3,67.8,28.61,South,178,10.0,15.0,95,0.00,,,-99.99,FreeWX-Wi 1.01,2013-06-23 14:09:00,
2013-06-23 09:19:00,69.1,67.6,28.61,South,172,11.0,15.4,95,0.00,,,-99.99,FreeWX-Wi 1.01,2013-06-23 14:19:00,
2013-06-23 09:24:00,68.9,67.1,28.61,South,171,11.0,15.4,94,0.00,,,-99.99,FreeWX-Wi 1.01,2013-06-23 14:24:00,
2013-06-23 09:29:00,68.7,66.9,28.61,South,170,12.0,15.0,94,0.00,,,-99.99,FreeWX-Wi 1.01,2013-06-23 14:29:00,
2013-06-23 09:34:00,68.5,66.4,28.58,South,170,12.0,17.9,93,0.00,,,-99.99,FreeWX-Wi 1.01,2013-06-23 14:34:00,
2013-06-23 09:39:00,68.5,66.2,28.58,SSE,168,12.0,18.3,92,0.04,,,-99.99,FreeWX-Wi 1.01,2013-06-23 14:39:00,
2013-06-23 09:44:00,68.5,65.8,28.58,SSE,164,12.0,19.7,91,0.04,,,-99.99,FreeWX-Wi 1.01,2013-06-23 14:44:00,
2013-06-23 09:49:00,68.5,65.1,28.50,SSE,160,13.0,23.3,89,0.04,,,-99.99,FreeWX-Wi 1.01,2013-06-23 14:49:00,
2013-06-23 09:54:00,68.5,64.8,28.50,SSE,157,14.0,21.9,88,0.04,,,-99.99,FreeWX-Wi 1.01,2013-06-23 14:54:00,
2013-06-23 09:59:00,68.7,64.0,28.50,SSE,154,14.0,21.0,85,0.04,,,-99.99,FreeWX-Wi 1.01,2013-06-23 14:59:00,
2013-06-23 10:04:00,68.5,63.1,28.50,SSE,149,14.0,18.3,83,0.04,,,-99.99,FreeWX-Wi 1.01,2013-06-23 15:04:00,
2013-06-23 10:09:00,68.5,61.7,28.50,SE,144,14.0,17.0,79,0.04,,,-99.99,FreeWX-Wi 1.01,2013-06-23 15:09:00,
2013-06-23 10:14:00,68.7,60.4,28.50,SE,141,15.0,19.7,75,0.04,,,-99.99,FreeWX-Wi 1.01,2013-06-23 15:14:00,
2013-06-23 10:19:00,68.7,59.7,28.52,SE,140,14.0,14.1,73,0.04,,,-99.99,FreeWX-Wi 1.01,2013-06-23 15:19:00,
2013-06-23 10:24:00,69.1,58.5,28.52,SE,142,13.0,15.4,69,0.04,,,-99.99,FreeWX-Wi 1.01,2013-06-23 15:24:00,
2013-06-23 10:29:00,69.3,58.3,28.52,SE,144,13.0,16.3,68,0.04,,,-99.99,FreeWX-Wi 1.01,2013-06-23 15:29:00,
2013-06-23 10:34:00,69.6,57.7,28.52,SE,146,13.0,16.3,66,0.04,,,-99.99,FreeWX-Wi 1.01,2013-06-23 15:34:00,
2013-06-23 10:39:00,70.0,57.7,28.52,SE,146,13.0,0.0,65,0.00,,,-99.99,FreeWX-Wi 1.01,2013-06-23 15:39:00,
2013-06-23 10:44:00,70.2,58.6,28.52,SSE,150,12.0,12.0,67,0.00,,,-99.99,FreeWX-Wi 1.01,2013-06-23 15:44:00,
2013-06-23 10:49:00,70.5,59.4,28.55,SSE,156,12.0,12.0,68,0.00,,,-99.99,FreeWX-Wi 1.01,2013-06-23 15:49:00,
2013-06-23 10:54:00,70.7,58.3,28.55,SSE,163,12.0,14.5,65,0.00,,,-99.99,FreeWX-Wi 1.01,2013-06-23 15:54:00,
2013-06-23 11:05:00,70.7,57.6,28.58,South,176,11.0,15.4,63,0.00,,,-99.99,FreeWX-Wi 1.01,2013-06-23 16:05:00,
2013-06-23 11:15:00,71.4,59.9,28.58,South,186,11.0,13.2,67,0.00,,,-99.99,FreeWX-Wi 1.01,2013-06-23 16:15:00,
2013-06-23 11:20:00,72.0,59.5,28.58,South,189,11.0,13.2,65,0.00,,,-99.99,FreeWX-Wi 1.01,2013-06-23 16:20:00,
2013-06-23 11:25:00,72.3,58.1,28.58,South,188,11.0,16.8,61,0.00,,,-99.99,FreeWX-Wi 1.01,2013-06-23 16:25:00,
2013-06-23 11:30:00,72.5,58.6,28.58,South,184,12.0,15.4,62,0.00,,,-99.99,FreeWX-Wi 1.01,2013-06-23 16:30:00,
2013-06-23 11:35:00,72.7,59.7,28.58,South,183,12.0,13.2,64,0.00,,,-99.99,FreeWX-Wi 1.01,2013-06-23 16:35:00,
2013-06-23 11:40:00,72.3,57.2,28.58,South,184,12.0,17.0,59,0.00,,,-99.99,FreeWX-Wi 1.01,2013-06-23 16:40:00,
2013-06-23 11:45:00,72.0,57.4,28.58,South,183,12.0,18.8,60,0.00,,,-99.99,FreeWX-Wi 1.01,2013-06-23 16:45:00,
2013-06-23 11:50:00,71.6,58.3,28.61,South,182,12.0,19.7,63,0.00,,,-99.99,FreeWX-Wi 1.01,2013-06-23 16:50:00,
2013-06-23 11:55:00,71.6,58.3,28.61,South,183,13.0,16.3,63,0.00,,,-99.99,FreeWX-Wi 1.01,2013-06-23 16:55:00,
2013-06-23 12:00:00,71.4,58.6,28.61,South,185,13.0,17.4,64,0.00,,,-99.99,FreeWX-Wi 1.01,2013-06-23 17:00:00,
2013-06-23 12:05:00,71.4,57.7,28.61,South,186,14.0,19.2,62,0.00,,,-99.99,FreeWX-Wi 1.01,2013-06-23 17:05:00,
2013-06-23 12:10:00,71.2,57.9,28.61,South,185,14.0,17.0,63,0.00,,,-99.99,FreeWX-Wi 1.01,2013-06-23 17:10:00,
2013-06-23 12:15:00,71.4,59.5,28.61,South,185,14.0,15.9,66,0.00,,,-99.99,FreeWX-Wi 1.01,2013-06-23 17:15:00,
2013-06-23 12:20:00,71.4,58.6,28.61,South,186,14.0,15.0,64,0.00,,,-99.99,FreeWX-Wi 1.01,2013-06-23 17:20:00,
2013-06-23 12:25:00,71.6,57.4,28.61,South,188,14.0,17.0,61,0.00,,,-99.99,FreeWX-Wi 1.01,2013-06-23 17:25:00,
2013-06-23 12:30:00,71.8,57.6,28.61,South,187,14.0,18.8,61,0.00,,,-99.99,FreeWX-Wi 1.01,2013-06-23 17:30:00,
2013-06-23 12:34:00,72.0,56.8,28.61,South,187,14.0,18.3,59,0.00,,,-99.99,FreeWX-Wi 1.01,2013-06-23 17:34:00,
2013-06-23 12:39:00,72.0,56.8,28.61,South,188,14.0,20.1,59,0.00,,,-99.99,FreeWX-Wi 1.01,2013-06-23 17:39:00,
2013-06-23 12:44:00,72.3,57.6,28.61,South,189,14.0,20.1,60,0.00,,,-99.99,FreeWX-Wi 1.01,2013-06-23 17:44:00,
2013-06-23 12:49:00,72.5,57.4,28.61,South,191,14.0,19.7,59,0.00,,,-99.99,FreeWX-Wi 1.01,2013-06-23 17:49:00,
2013-06-23 12:54:00,72.9,57.2,28.61,SSW,192,14.0,17.0,58,0.00,,,-99.99,FreeWX-Wi 1.01,2013-06-23 17:54:00,
2013-06-23 12:59:00,73.6,56.5,28.61,SSW,193,14.0,19.7,55,0.00,,,-99.99,FreeWX-Wi 1.01,2013-06-23 17:59:00,
2013-06-23 13:04:00,74.1,57.4,28.61,SSW,194,14.0,20.1,56,0.00,,,-99.99,FreeWX-Wi 1.01,2013-06-23 18:04:00,
2013-06-23 13:09:00,74.7,55.4,28.61,SSW,196,14.0,19.7,51,0.00,,,-99.99,FreeWX-Wi 1.01,2013-06-23 18:09:00,
2013-06-23 13:14:00,75.0,54.5,28.61,SSW,197,14.0,17.4,49,0.00,,,-99.99,FreeWX-Wi 1.01,2013-06-23 18:14:00,
2013-06-23 13:19:00,75.4,53.8,28.58,SSW,198,14.0,21.5,47,0.00,,,-99.99,FreeWX-Wi 1.01,2013-06-23 18:19:00,
2013-06-23 13:24:00,75.6,55.0,28.58,SSW,200,15.0,23.3,49,0.00,,,-99.99,FreeWX-Wi 1.01,2013-06-23 18:24:00,
2013-06-23 13:29:00,75.4,54.3,28.58,SSW,200,15.0,17.4,48,0.00,,,-99.99,FreeWX-Wi 1.01,2013-06-23 18:29:00,
2013-06-23 13:34:00,76.3,55.0,28.61,SSW,200,15.0,18.3,48,0.00,,,-99.99,FreeWX-Wi 1.01,2013-06-23 18:34:00,
2013-06-23 13:39:00,76.6,54.3,28.61,SSW,200,15.0,17.9,46,0.00,,,-99.99,FreeWX-Wi 1.01,2013-06-23 18:39:00,
2013-06-23 13:44:00,77.0,55.2,28.61,SSW,200,15.0,19.7,47,0.00,,,-99.99,FreeWX-Wi 1.01,2013-06-23 18:44:00,
2013-06-23 13:49:00,77.4,53.8,28.61,SSW,200,15.0,17.4,44,0.00,,,-99.99,FreeWX-Wi 1.01,2013-06-23 18:49:00,
2013-06-23 13:54:00,77.7,54.0,28.61,SSW,201,15.0,15.4,44,0.00,,,-99.99,FreeWX-Wi 1.01,2013-06-23 18:54:00,
2013-06-23 13:59:00,78.1,55.0,28.61,SSW,202,15.0,19.2,45,0.00,,,-99.99,FreeWX-Wi 1.01,2013-06-23 18:59:00,
2013-06-23 14:04:00,78.1,51.8,28.58,SSW,202,15.0,21.5,40,0.00,,,-99.99,FreeWX-Wi 1.01,2013-06-23 19:04:00,
2013-06-23 14:09:00,78.3,54.5,28.58,SSW,203,15.0,17.4,44,0.00,,,-99.99,FreeWX-Wi 1.01,2013-06-23 19:09:00,
2013-06-23 14:14:00,77.7,54.0,28.58,SSW,205,15.0,23.3,44,0.00,,,-99.99,FreeWX-Wi 1.01,2013-06-23 19:14:00,
2013-06-23 14:19:00,77.5,54.0,28.58,SSW,207,15.0,19.7,44,0.00,,,-99.99,FreeWX-Wi 1.01,2013-06-23 19:19:00,
2013-06-23 14:24:00,77.9,54.1,28.58,SSW,208,15.0,17.4,44,0.00,,,-99.99,FreeWX-Wi 1.01,2013-06-23 19:24:00,
2013-06-23 14:29:00,78.6,54.1,28.58,SSW,209,15.0,17.9,43,0.00,,,-99.99,FreeWX-Wi 1.01,2013-06-23 19:29:00,
2013-06-23 14:34:00,78.8,54.3,28.58,SSW,210,15.0,18.3,43,0.00,,,-99.99,FreeWX-Wi 1.01,2013-06-23 19:34:00,
2013-06-23 14:39:00,78.8,55.0,28.58,SSW,209,15.0,16.3,44,0.00,,,-99.99,FreeWX-Wi 1.01,2013-06-23 19:39:00,
2013-06-23 14:44:00,79.2,55.4,28.58,SSW,209,14.0,17.0,44,0.00,,,-99.99,FreeWX-Wi 1.01,2013-06-23 19:44:00,
2013-06-23 14:49:00,79.7,55.2,28.58,SSW,209,14.0,18.3,43,0.00,,,-99.99,FreeWX-Wi 1.01,2013-06-23 19:49:00,
2013-06-23 14:59:00,79.5,54.3,28.58,SSW,210,14.0,15.9,42,0.00,,,-99.99,FreeWX-Wi 1.01,2013-06-23 19:59:00,
2013-06-23 15:04:00,79.3,53.6,28.58,SSW,210,14.0,15.4,41,0.00,,,-99.99,FreeWX-Wi 1.01,2013-06-23 20:04:00,
2013-06-23 15:09:00,79.3,56.1,28.58,SSW,211,13.0,16.8,45,0.00,,,-99.99,FreeWX-Wi 1.01,2013-06-23 20:09:00,
2013-06-23 15:14:00,79.3,54.9,28.58,SSW,213,13.0,13.6,43,0.00,,,-99.99,FreeWX-Wi 1.01,2013-06-23 20:14:00,
2013-06-23 15:19:00,78.6,55.4,28.61,SW,215,13.0,15.4,45,0.00,,,-99.99,FreeWX-Wi 1.01,2013-06-23 20:19:00,
2013-06-23 15:24:00,78.4,55.9,28.61,SW,217,13.0,15.4,46,0.00,,,-99.99,FreeWX-Wi 1.01,2013-06-23 20:24:00,
2013-06-23 15:29:00,78.3,57.0,28.61,SW,218,12.0,14.1,48,0.00,,,-99.99,FreeWX-Wi 1.01,2013-06-23 20:29:00,
2013-06-23 15:34:00,79.0,56.5,28.58,SW,218,12.0,15.0,46,0.00,,,-99.99,FreeWX-Wi 1.01,2013-06-23 20:34:00,
2013-06-23 15:44:00,80.1,56.8,28.58,SW,217,12.0,15.4,45,0.00,,,-99.99,FreeWX-Wi 1.01,2013-06-23 20:44:00,
2013-06-23 15:49:00,80.2,57.0,28.58,SW,218,12.0,15.9,45,0.00,,,-99.99,FreeWX-Wi 1.01,2013-06-23 20:49:00,
2013-06-23 15:54:00,79.9,56.7,28.58,SW,218,12.0,15.4,45,0.00,,,-99.99,FreeWX-Wi 1.01,2013-06-23 20:54:00,
2013-06-23 15:59:00,79.7,55.2,28.58,SW,218,12.0,16.3,43,0.00,,,-99.99,FreeWX-Wi 1.01,2013-06-23 20:59:00,
2013-06-23 16:04:00,80.1,56.1,28.58,SW,217,12.0,17.4,44,0.00,,,-99.99,FreeWX-Wi 1.01,2013-06-23 21:04:00,
2013-06-23 16:09:00,79.9,57.2,28.58,SW,217,12.0,14.1,46,0.00,,,-99.99,FreeWX-Wi 1.01,2013-06-23 21:09:00,
2013-06-23 16:14:00,80.1,56.1,28.58,SW,218,12.0,12.8,44,0.00,,,-99.99,FreeWX-Wi 1.01,2013-06-23 21:14:00,
2013-06-23 16:19:00,80.8,56.8,28.58,SW,217,12.0,12.8,44,0.00,,,-99.99,FreeWX-Wi 1.01,2013-06-23 21:19:00,
2013-06-23 16:24:00,80.8,56.1,28.58,SW,216,12.0,13.2,43,0.00,,,-99.99,FreeWX-Wi 1.01,2013-06-23 21:24:00,
2013-06-23 16:29:00,80.6,57.2,28.58,SW,217,12.0,13.2,45,0.00,,,-99.99,FreeWX-Wi 1.01,2013-06-23 21:29:00,
2013-06-23 16:34:00,80.6,56.7,28.58,SW,218,12.0,15.4,44,0.00,,,-99.99,FreeWX-Wi 1.01,2013-06-23 21:34:00,
2013-06-23 16:44:00,79.9,55.4,28.58,SW,218,11.0,15.0,43,0.00,,,-99.99,FreeWX-Wi 1.01,2013-06-23 21:44:00,
2013-06-23 16:49:00,80.2,55.8,28.58,SW,218,11.0,0.0,43,0.00,,,-99.99,FreeWX-Wi 1.01,2013-06-23 21:49:00,
2013-06-23 16:54:00,80.2,56.3,28.58,SW,218,11.0,0.0,44,0.00,,,-99.99,FreeWX-Wi 1.01,2013-06-23 21:54:00,
2013-06-23 16:59:00,80.4,55.8,28.58,SW,217,11.0,12.3,43,0.00,,,-99.99,FreeWX-Wi 1.01,2013-06-23 21:59:00,
2013-06-23 17:04:00,80.4,57.0,28.61,SW,215,11.0,13.2,45,0.00,,,-99.99,FreeWX-Wi 1.01,2013-06-23 22:04:00,
2013-06-23 17:09:00,81.3,57.4,28.61,SW,215,11.0,0.0,44,0.00,,,-99.99,FreeWX-Wi 1.01,2013-06-23 22:09:00,
2013-06-23 17:14:00,81.5,54.9,28.61,SW,215,11.0,0.0,40,0.00,,,-99.99,FreeWX-Wi 1.01,2013-06-23 22:14:00,
2013-06-23 17:19:00,81.5,54.1,28.61,SW,216,11.0,11.0,39,0.00,,,-99.99,FreeWX-Wi 1.01,2013-06-23 22:19:00,
2013-06-23 17:24:00,81.9,55.2,28.61,SW,216,11.0,0.0,40,0.00,,,-99.99,FreeWX-Wi 1.01,2013-06-23 22:24:00,
2013-06-23 17:29:00,81.7,54.3,28.61,SW,216,11.0,11.0,39,0.00,,,-99.99,FreeWX-Wi 1.01,2013-06-23 22:29:00,
2013-06-23 17:34:00,81.0,54.3,28.61,SW,217,11.0,11.0,40,0.00,,,-99.99,FreeWX-Wi 1.01,2013-06-23 22:34:00,
2013-06-23 17:39:00,80.8,56.1,28.61,SW,217,11.0,11.0,43,0.00,,,-99.99,FreeWX-Wi 1.01,2013-06-23 22:39:00,
2013-06-23 17:44:00,80.8,54.9,28.61,SW,217,11.0,11.0,41,0.00,,,-99.99,FreeWX-Wi 1.01,2013-06-23 22:44:00,
2013-06-23 17:49:00,80.8,54.9,28.61,SW,217,11.0,11.0,41,0.00,,,-99.99,FreeWX-Wi 1.01,2013-06-23 22:49:00,
2013-06-23 17:54:00,81.5,54.9,28.61,SW,217,11.0,0.0,40,0.00,,,-99.99,FreeWX-Wi 1.01,2013-06-23 22:54:00,
2013-06-23 17:59:00,81.0,54.3,28.61,SW,218,11.0,11.0,40,0.00,,,-99.99,FreeWX-Wi 1.01,2013-06-23 22:59:00,
2013-06-23 18:04:00,80.8,54.1,28.61,SW,218,11.0,11.0,40,0.00,,,-99.99,FreeWX-Wi 1.01,2013-06-23 23:04:00,
2013-06-23 18:09:00,81.0,55.0,28.61,SW,218,11.0,11.0,41,0.00,,,-99.99,FreeWX-Wi 1.01,2013-06-23 23:09:00,
2013-06-23 18:14:00,80.2,55.0,28.61,SW,218,10.0,10.0,42,0.00,,,-99.99,FreeWX-Wi 1.01,2013-06-23 23:14:00,
2013-06-23 18:19:00,79.5,55.0,28.61,SW,218,10.0,0.0,43,0.00,,,-99.99,FreeWX-Wi 1.01,2013-06-23 23:19:00,
2013-06-23 18:23:00,79.5,56.3,28.61,SW,218,10.0,0.0,45,0.00,,,-99.99,FreeWX-Wi 1.01,2013-06-23 23:23:00,
2013-06-23 18:33:00,80.1,54.9,28.61,SW,217,10.0,11.4,42,0.00,,,-99.99,FreeWX-Wi 1.01,2013-06-23 23:33:00,
2013-06-23 18:38:00,79.7,54.5,28.61,SW,217,10.0,10.0,42,0.00,,,-99.99,FreeWX-Wi 1.01,2013-06-23 23:38:00,
2013-06-23 18:48:00,81.9,53.1,28.61,SW,218,10.0,12.3,37,0.00,,,-99.99,FreeWX-Wi 1.01,2013-06-23 23:48:00,
2013-06-23 18:53:00,82.8,53.1,28.61,SW,219,10.0,12.8,36,0.00,,,-99.99,FreeWX-Wi 1.01,2013-06-23 23:53:00,
2013-06-23 18:58:00,83.3,52.0,28.61,SW,220,10.0,12.8,34,0.00,,,-99.99,FreeWX-Wi 1.01,2013-06-23 23:58:00,
2013-06-23 19:03:00,82.4,52.7,28.61,SW,221,10.0,11.0,36,0.00,,,-99.99,FreeWX-Wi 1.01,2013-06-24 00:03:00,
2013-06-23 19:08:00,81.0,54.3,28.61,SW,222,10.0,11.9,40,0.00,,,-99.99,FreeWX-Wi 1.01,2013-06-24 00:08:00,
2013-06-23 19:13:00,79.7,55.2,28.61,SW,224,9.0,11.9,43,0.00,,,-99.99,FreeWX-Wi 1.01,2013-06-24 00:13:00,
2013-06-23 19:18:00,79.3,54.9,28.61,SW,224,9.0,10.1,43,0.00,,,-99.99,FreeWX-Wi 1.01,2013-06-24 00:18:00,
2013-06-23 19:23:00,79.0,54.5,28.61,SW,224,9.0,10.1,43,0.00,,,-99.99,FreeWX-Wi 1.01,2013-06-24 00:23:00,
2013-06-23 19:28:00,78.8,54.3,28.61,SW,225,9.0,11.0,43,0.00,,,-99.99,FreeWX-Wi 1.01,2013-06-24 00:28:00,
2013-06-23 19:33:00,78.4,55.4,28.61,SW,224,9.0,11.0,45,0.00,,,-99.99,FreeWX-Wi 1.01,2013-06-24 00:33:00,
2013-06-23 19:43:00,78.3,57.0,28.61,SW,223,8.0,8.0,48,0.00,,,-99.99,FreeWX-Wi 1.01,2013-06-24 00:43:00,
2013-06-23 19:48:00,78.1,56.8,28.61,SW,223,8.0,8.0,48,0.00,,,-99.99,FreeWX-Wi 1.01,2013-06-24 00:48:00,
2013-06-23 19:53:00,77.7,56.5,28.61,SW,223,8.0,8.0,48,0.00,,,-99.99,FreeWX-Wi 1.01,2013-06-24 00:53:00,
2013-06-23 19:58:00,77.4,57.7,28.61,SW,223,8.0,8.0,51,0.00,,,-99.99,FreeWX-Wi 1.01,2013-06-24 00:58:00,
2013-06-23 20:03:00,77.0,57.9,28.61,SW,223,8.0,8.0,52,0.00,,,-99.99,FreeWX-Wi 1.01,2013-06-24 01:03:00,
2013-06-23 20:08:00,76.6,58.3,28.61,SW,223,7.0,7.6,53,0.00,,,-99.99,FreeWX-Wi 1.01,2013-06-24 01:08:00,
2013-06-23 20:13:00,76.1,58.3,28.61,SW,222,7.0,7.0,54,0.00,,,-99.99,FreeWX-Wi 1.01,2013-06-24 01:13:00,
2013-06-23 20:18:00,75.7,58.5,28.61,SW,222,7.0,7.0,55,0.00,,,-99.99,FreeWX-Wi 1.01,2013-06-24 01:18:00,
2013-06-23 20:23:00,75.6,58.8,28.61,SW,221,7.0,7.0,56,0.00,,,-99.99,FreeWX-Wi 1.01,2013-06-24 01:23:00,
2013-06-23 20:28:00,75.4,59.0,28.61,SW,221,7.0,7.0,57,0.00,,,-99.99,FreeWX-Wi 1.01,2013-06-24 01:28:00,
2013-06-23 20:33:00,75.4,59.0,28.61,SW,221,6.0,6.0,57,0.00,,,-99.99,FreeWX-Wi 1.01,2013-06-24 01:33:00,
2013-06-23 20:38:00,75.0,59.2,28.61,SW,220,6.0,6.0,58,0.00,,,-99.99,FreeWX-Wi 1.01,2013-06-24 01:38:00,
2013-06-23 20:43:00,74.8,59.5,28.61,SW,220,6.0,6.0,59,0.00,,,-99.99,FreeWX-Wi 1.01,2013-06-24 01:43:00,
2013-06-23 20:48:00,74.7,59.9,28.64,SW,220,6.0,6.0,60,0.00,,,-99.99,FreeWX-Wi 1.01,2013-06-24 01:48:00,
2013-06-23 20:53:00,74.3,59.9,28.64,SW,220,6.0,6.0,61,0.00,,,-99.99,FreeWX-Wi 1.01,2013-06-24 01:53:00,
2013-06-23 20:58:00,74.1,58.5,28.64,SW,219,6.0,6.0,58,0.00,,,-99.99,FreeWX-Wi 1.01,2013-06-24 01:58:00,
2013-06-23 21:03:00,74.1,57.9,28.64,SW,219,6.0,6.0,57,0.00,,,-99.99,FreeWX-Wi 1.01,2013-06-24 02:03:00,
2013-06-23 21:08:00,74.1,58.5,28.64,SW,218,5.0,5.4,58,0.00,,,-99.99,FreeWX-Wi 1.01,2013-06-24 02:08:00,
2013-06-23 21:13:00,73.8,58.5,28.64,SW,218,5.0,0.0,59,0.00,,,-99.99,FreeWX-Wi 1.01,2013-06-24 02:13:00,
2013-06-23 21:18:00,73.6,58.8,28.61,SW,218,5.0,0.0,60,0.00,,,-99.99,FreeWX-Wi 1.01,2013-06-24 02:18:00,
2013-06-23 21:23:00,73.4,58.6,28.61,SW,218,5.0,0.0,60,0.00,,,-99.99,FreeWX-Wi 1.01,2013-06-24 02:23:00,
2013-06-23 21:28:00,73.2,58.5,28.61,SW,218,5.0,0.0,60,0.00,,,-99.99,FreeWX-Wi 1.01,2013-06-24 02:28:00,
2013-06-23 21:33:00,73.0,57.9,28.64,SW,218,5.0,0.0,59,0.00,,,-99.99,FreeWX-Wi 1.01,2013-06-24 02:33:00,
2013-06-23 21:38:00,72.9,57.7,28.64,SW,218,5.0,0.0,59,0.00,,,-99.99,FreeWX-Wi 1.01,2013-06-24 02:38:00,
2013-06-23 21:43:00,72.9,57.7,28.64,SW,218,5.0,0.0,59,0.00,,,-99.99,FreeWX-Wi 1.01,2013-06-24 02:43:00,
2013-06-23 21:48:00,72.7,57.9,28.64,SW,218,5.0,0.0,60,0.00,,,-99.99,FreeWX-Wi 1.01,2013-06-24 02:48:00,
2013-06-23 21:53:00,72.5,58.3,28.64,SW,218,5.0,0.0,61,0.00,,,-99.99,FreeWX-Wi 1.01,2013-06-24 02:53:00,
2013-06-23 21:58:00,72.3,58.1,28.64,SW,218,5.0,0.0,61,0.00,,,-99.99,FreeWX-Wi 1.01,2013-06-24 02:58:00,
2013-06-23 22:03:00,72.1,57.9,28.64,SW,218,5.0,0.0,61,0.00,,,-99.99,FreeWX-Wi 1.01,2013-06-24 03:03:00,
2013-06-23 22:08:00,72.1,58.8,28.64,SW,218,5.0,0.0,63,0.00,,,-99.99,FreeWX-Wi 1.01,2013-06-24 03:08:00,
2013-06-23 22:13:00,72.0,59.2,28.64,SW,218,5.0,0.0,64,0.00,,,-99.99,FreeWX-Wi 1.01,2013-06-24 03:13:00,
2013-06-23 22:18:00,71.8,59.4,28.64,SW,218,5.0,0.0,65,0.00,,,-99.99,FreeWX-Wi 1.01,2013-06-24 03:18:00,
2013-06-23 22:23:00,71.6,59.5,28.64,SW,218,5.0,0.0,66,0.00,,,-99.99,FreeWX-Wi 1.01,2013-06-24 03:23:00,
2013-06-23 22:28:00,71.4,59.5,28.64,SW,218,5.0,0.0,66,0.00,,,-99.99,FreeWX-Wi 1.01,2013-06-24 03:28:00,
2013-06-23 22:33:00,71.4,59.9,28.67,SW,218,5.0,0.0,67,0.00,,,-99.99,FreeWX-Wi 1.01,2013-06-24 03:33:00,
2013-06-23 22:38:00,71.2,59.7,28.67,SW,218,5.0,5.8,67,0.00,,,-99.99,FreeWX-Wi 1.01,2013-06-24 03:38:00,
2013-06-23 22:43:00,71.2,59.7,28.67,SW,218,5.0,0.0,67,0.00,,,-99.99,FreeWX-Wi 1.01,2013-06-24 03:43:00,
2013-06-23 22:48:00,71.1,59.9,28.67,SW,218,5.0,0.0,68,0.00,,,-99.99,FreeWX-Wi 1.01,2013-06-24 03:48:00,
2013-06-23 22:58:00,70.9,60.3,28.67,SW,218,5.0,0.0,69,0.00,,,-99.99,FreeWX-Wi 1.01,2013-06-24 03:58:00,
2013-06-23 23:03:00,70.9,60.3,28.67,SW,218,5.0,0.0,69,0.00,,,-99.99,FreeWX-Wi 1.01,2013-06-24 04:03:00,
2013-06-23 23:08:00,70.9,60.3,28.67,SW,218,5.0,0.0,69,0.00,,,-99.99,FreeWX-Wi 1.01,2013-06-24 04:08:00,
2013-06-23 23:13:00,70.9,60.3,28.67,SW,218,5.0,0.0,69,0.00,,,-99.99,FreeWX-Wi 1.01,2013-06-24 04:13:00,
2013-06-23 23:18:00,70.9,60.3,28.67,SW,218,5.0,0.0,69,0.00,,,-99.99,FreeWX-Wi 1.01,2013-06-24 04:18:00,
2013-06-23 23:28:00,70.7,60.1,28.67,SW,218,5.0,0.0,69,0.00,,,-99.99,FreeWX-Wi 1.01,2013-06-24 04:28:00,
2013-06-23 23:33:00,70.5,60.3,28.67,SW,218,5.0,0.0,70,0.00,,,-99.99,FreeWX-Wi 1.01,2013-06-24 04:33:00,
2013-06-23 23:38:00,70.3,60.1,28.67,SW,218,5.0,0.0,70,0.00,,,-99.99,FreeWX-Wi 1.01,2013-06-24 04:38:00,
2013-06-23 23:43:00,70.2,60.3,28.67,SW,218,5.0,0.0,71,0.00,,,-99.99,FreeWX-Wi 1.01,2013-06-24 04:43:00,
2013-06-23 23:48:00,69.8,60.4,28.67,SW,218,5.0,0.0,72,0.00,,,-99.99,FreeWX-Wi 1.01,2013-06-24 04:48:00,
2013-06-23 23:53:00,69.8,61.2,28.67,SW,218,5.0,0.0,74,0.00,,,-99.99,FreeWX-Wi 1.01,2013-06-24 04:53:00,
2013-06-23 23:58:00,69.6,61.3,28.67,SW,218,5.0,0.0,75,0.00,,,-99.99,FreeWX-Wi 1.01,2013-06-24 04:58:00,